| time (UTC) | temp F | wind direction | speed MPH | gust MPH | rain 1hr in | rain 24hr in | rain mn in | humidity % | barometer mb |
| 20260507201534 | 66 | 265 | 6.0 | 17.0 | 0.00 | 0.00 | 0.00 | 81 | 1015.5 |
| 20260507201020 | 66 | 230 | 7.0 | 17.0 | 0.00 | 0.00 | 0.00 | 81 | 1015.5 |
| 20260507200510 | 66 | 254 | 8.0 | 17.0 | 0.00 | 0.00 | 0.00 | 80 | 1015.6 |
| 20260507200049 | 66 | 272 | 8.0 | 16.0 | 0.00 | 0.00 | 0.00 | 79 | 1015.6 |
| 20260507195513 | 67 | 287 | 5.0 | 15.0 | 0.00 | 0.00 | 0.00 | 80 | 1015.6 |
| 20260507195011 | 66 | 275 | 7.0 | 15.0 | 0.00 | 0.00 | 0.00 | 80 | 1015.7 |
| 20260507194531 | 67 | 261 | 7.0 | 14.0 | 0.00 | 0.00 | 0.00 | 80 | 1015.8 |
| 20260507194012 | 67 | 267 | 6.0 | 15.0 | 0.00 | 0.00 | 0.00 | 79 | 1015.9 |
| 20260507193512 | 66 | 294 | 7.0 | 15.0 | 0.00 | 0.00 | 0.00 | 79 | 1015.9 |
| 20260507193043 | 66 | 206 | 6.0 | 15.0 | 0.00 | 0.00 | 0.00 | 79 | 1015.9 |
| 20260507192511 | 67 | 235 | 7.0 | 15.0 | 0.00 | 0.00 | 0.00 | 78 | 1016.0 |
| 20260507192013 | 67 | 254 | 5.0 | 12.0 | 0.00 | 0.00 | 0.00 | 79 | 1016.1 |
| 20260507191529 | 66 | 250 | 6.0 | 11.0 | 0.00 | 0.00 | 0.00 | 80 | 1016.2 |
| 20260507191012 | 66 | 265 | 5.0 | 13.0 | 0.00 | 0.00 | 0.00 | 79 | 1016.3 |
| 20260507190512 | 66 | 153 | 7.0 | 13.0 | 0.00 | 0.00 | 0.00 | 79 | 1016.3 |
| 20260507190036 | 67 | 277 | 6.0 | 12.0 | 0.00 | 0.00 | 0.00 | 79 | 1016.3 |
| 20260507185512 | 67 | 173 | 5.0 | 12.0 | 0.00 | 0.00 | 0.00 | 79 | 1016.3 |
| 20260507185010 | 67 | 253 | 6.0 | 13.0 | 0.00 | 0.00 | 0.00 | 79 | 1016.3 |
| 20260507184528 | 67 | 205 | 5.0 | 13.0 | 0.00 | 0.00 | 0.00 | 79 | 1016.3 |
| 20260507184014 | 67 | 240 | 6.0 | 13.0 | 0.00 | 0.00 | 0.00 | 79 | 1016.3 |
| 20260507183517 | 67 | 275 | 4.0 | 11.0 | 0.00 | 0.00 | 0.00 | 79 | 1016.3 |
| 20260507183037 | 67 | 240 | 4.0 | 12.0 | 0.00 | 0.00 | 0.00 | 78 | 1016.4 |
| 20260507182514 | 67 | 221 | 4.0 | 12.0 | 0.00 | 0.00 | 0.00 | 79 | 1016.4 |
| 20260507182013 | 67 | 259 | 5.0 | 12.0 | 0.00 | 0.00 | 0.00 | 79 | 1016.4 |
| 20260507181535 | 67 | 271 | 6.0 | 11.0 | 0.00 | 0.00 | 0.00 | 79 | 1016.5 |
| 20260507181016 | 67 | 259 | 4.0 | 9.0 | 0.00 | 0.00 | 0.00 | 79 | 1016.5 |
| 20260507180516 | 67 | 260 | 3.0 | 12.0 | 0.00 | 0.00 | 0.00 | 79 | 1016.6 |
| 20260507180030 | 67 | 262 | 4.0 | 12.0 | 0.00 | 0.00 | 0.00 | 79 | 1016.5 |
| 20260507175510 | 67 | 281 | 3.0 | 11.0 | 0.00 | 0.00 | 0.00 | 80 | 1016.6 |
| 20260507175013 | 66 | 208 | 5.0 | 11.0 | 0.00 | 0.00 | 0.00 | 80 | 1016.5 |
| 20260507174537 | 66 | 267 | 6.0 | 11.0 | 0.00 | 0.00 | 0.00 | 80 | 1016.5 |
| 20260507174010 | 66 | 250 | 4.0 | 11.0 | 0.00 | 0.00 | 0.00 | 80 | 1016.6 |
| 20260507173514 | 66 | 245 | 4.0 | 11.0 | 0.00 | 0.00 | 0.00 | 81 | 1016.6 |
| 20260507173028 | 65 | 290 | 4.0 | 11.0 | 0.00 | 0.00 | 0.00 | 81 | 1016.6 |
| 20260507172513 | 65 | 260 | 6.0 | 11.0 | 0.00 | 0.00 | 0.00 | 81 | 1016.7 |
| 20260507172012 | 66 | 221 | 5.0 | 11.0 | 0.00 | 0.00 | 0.00 | 81 | 1016.6 |
| 20260507171530 | 66 | 262 | 4.0 | 10.0 | 0.00 | 0.00 | 0.00 | 81 | 1016.6 |
| 20260507171015 | 66 | 218 | 4.0 | 10.0 | 0.00 | 0.00 | 0.00 | 81 | 1016.6 |
| 20260507170510 | 65 | 257 | 4.0 | 9.0 | 0.00 | 0.00 | 0.00 | 81 | 1016.6 |
| 20260507170030 | 65 | 201 | 3.0 | 8.0 | 0.00 | 0.00 | 0.00 | 82 | 1016.6 |
| 20260507165512 | 65 | 261 | 4.0 | 8.0 | 0.00 | 0.00 | 0.00 | 81 | 1016.7 |
| 20260507165010 | 65 | 207 | 3.0 | 8.0 | 0.00 | 0.00 | 0.00 | 82 | 1016.6 |
| 20260507164529 | 65 | 271 | 3.0 | 9.0 | 0.00 | 0.00 | 0.00 | 82 | 1016.6 |
| 20260507164014 | 65 | 270 | 2.0 | 9.0 | 0.00 | 0.00 | 0.00 | 82 | 1016.6 |
| 20260507163512 | 65 | 242 | 3.0 | 8.0 | 0.00 | 0.00 | 0.00 | 82 | 1016.7 |
| 20260507163031 | 65 | 250 | 2.0 | 8.0 | 0.00 | 0.00 | 0.00 | 83 | 1016.7 |
| 20260507162512 | 65 | 254 | 2.0 | 7.0 | 0.00 | 0.00 | 0.00 | 83 | 1016.7 |
| 20260507162009 | 65 | 278 | 2.0 | 7.0 | 0.00 | 0.00 | 0.00 | 82 | 1016.8 |
| 20260507161531 | 65 | 271 | 2.0 | 4.0 | 0.00 | 0.00 | 0.00 | 83 | 1016.7 |
| 20260507161011 | 64 | 217 | 1.0 | 4.0 | 0.00 | 0.00 | 0.00 | 83 | 1016.7 |
| 20260507160510 | 64 | 265 | 1.0 | 8.0 | 0.00 | 0.00 | 0.00 | 84 | 1016.8 |
| 20260507160030 | 64 | 235 | 3.0 | 8.0 | 0.00 | 0.00 | 0.00 | 84 | 1016.7 |
| 20260507155509 | 64 | 219 | 2.0 | 6.0 | 0.00 | 0.00 | 0.00 | 84 | 1016.8 |
| 20260507155016 | 63 | 245 | 1.0 | 6.0 | 0.00 | 0.00 | 0.00 | 85 | 1016.7 |
| 20260507154532 | 63 | 226 | 2.0 | 7.0 | 0.00 | 0.00 | 0.00 | 85 | 1016.7 |
| 20260507154014 | 63 | 242 | 1.0 | 7.0 | 0.00 | 0.00 | 0.00 | 86 | 1016.8 |
| 20260507153512 | 63 | 284 | 3.0 | 7.0 | 0.00 | 0.00 | 0.00 | 86 | 1016.7 |
| 20260507153035 | 62 | 252 | 2.0 | 7.0 | 0.00 | 0.00 | 0.00 | 87 | 1016.7 |
| 20260507152512 | 62 | 228 | 1.0 | 8.0 | 0.00 | 0.00 | 0.00 | 87 | 1016.7 |
| 20260507152014 | 62 | 257 | 2.0 | 9.0 | 0.00 | 0.00 | 0.00 | 88 | 1016.7 |
| 20260507151532 | 62 | 266 | 2.0 | 9.0 | 0.00 | 0.00 | 0.00 | 88 | 1016.9 |
| 20260507151013 | 62 | 278 | 2.0 | 6.0 | 0.00 | 0.00 | 0.00 | 89 | 1016.8 |
| 20260507150515 | 61 | 282 | 2.0 | 6.0 | 0.00 | 0.00 | 0.00 | 89 | 1016.8 |
| 20260507150032 | 61 | 265 | 2.0 | 7.0 | 0.00 | 0.00 | 0.00 | 89 | 1016.8 |
| 20260507145514 | 61 | 219 | 1.0 | 7.0 | 0.00 | 0.00 | 0.00 | 90 | 1016.8 |
| 20260507145014 | 61 | 275 | 1.0 | 5.0 | 0.00 | 0.00 | 0.00 | 90 | 1016.7 |
| 20260507144531 | 60 | 265 | 2.0 | 6.0 | 0.00 | 0.00 | 0.00 | 91 | 1016.7 |
| 20260507144011 | 60 | 221 | 2.0 | 7.0 | 0.00 | 0.00 | 0.00 | 91 | 1016.7 |
| 20260507143512 | 60 | 264 | 3.0 | 7.0 | 0.00 | 0.00 | 0.00 | 92 | 1016.6 |
| 20260507143032 | 60 | 250 | 0.0 | 5.0 | 0.00 | 0.00 | 0.00 | 93 | 1016.6 |
| 20260507142513 | 59 | 0 | 1.0 | 4.0 | 0.00 | 0.00 | 0.00 | 93 | 1016.6 |
| 20260507142010 | 59 | 267 | 1.0 | 4.0 | 0.00 | 0.00 | 0.00 | 93 | 1016.5 |
| 20260507141532 | 59 | 234 | 1.0 | 4.0 | 0.00 | 0.00 | 0.00 | 94 | 1016.4 |
| 20260507141013 | 58 | 225 | 1.0 | 3.0 | 0.00 | 0.00 | 0.00 | 94 | 1016.4 |
| 20260507140515 | 58 | 267 | 1.0 | 3.0 | 0.00 | 0.00 | 0.00 | 95 | 1016.4 |
| 20260507140033 | 57 | 250 | 1.0 | 3.0 | 0.00 | 0.00 | 0.00 | 95 | 1016.3 |
| 20260507135519 | 57 | 283 | 1.0 | 3.0 | 0.00 | 0.00 | 0.00 | 95 | 1016.3 |
| 20260507135014 | 56 | 221 | 0.0 | 2.0 | 0.00 | 0.00 | 0.00 | 96 | 1016.3 |
| 20260507134529 | 55 | 230 | 0.0 | 2.0 | 0.00 | 0.00 | 0.00 | 95 | 1016.2 |
| 20260507134014 | 55 | 230 | 0.0 | 2.0 | 0.00 | 0.00 | 0.00 | 95 | 1016.2 |
| 20260507133516 | 54 | 0 | 0.0 | 0.0 | 0.00 | 0.00 | 0.00 | 95 | 1016.2 |
| 20260507133033 | 53 | 0 | 0.0 | 0.0 | 0.00 | 0.00 | 0.00 | 94 | 1016.1 |
| 20260507132512 | 53 | 0 | 0.0 | 0.0 | 0.00 | 0.00 | 0.00 | 94 | 1016.1 |
| 20260507132015 | 53 | 0 | 0.0 | 0.0 | 0.00 | 0.00 | 0.00 | 93 | 1016.1 |
| 20260507131530 | 53 | 0 | 0.0 | 0.0 | 0.00 | 0.00 | 0.00 | 93 | 1016.1 |
| 20260507131014 | 53 | 0 | 0.0 | 0.0 | 0.00 | 0.00 | 0.00 | 93 | 1016.1 |
| 20260507130513 | 53 | 0 | 0.0 | 0.0 | 0.00 | 0.00 | 0.00 | 93 | 1016.1 |
| 20260507130053 | 53 | 0 | 0.0 | 0.0 | 0.00 | 0.00 | 0.00 | 93 | 1015.9 |
| 20260507125510 | 53 | 0 | 0.0 | 0.0 | 0.00 | 0.00 | 0.00 | 93 | 1016.0 |
| 20260507125012 | 53 | 0 | 0.0 | 0.0 | 0.00 | 0.00 | 0.00 | 93 | 1016.0 |
| 20260507124529 | 54 | 0 | 0.0 | 0.0 | 0.00 | 0.00 | 0.00 | 93 | 1015.9 |
| 20260507124011 | 54 | 0 | 0.0 | 0.0 | 0.00 | 0.00 | 0.00 | 93 | 1016.0 |
| 20260507123513 | 54 | 0 | 0.0 | 0.0 | 0.00 | 0.00 | 0.00 | 93 | 1016.0 |
| 20260507123030 | 54 | 0 | 0.0 | 0.0 | 0.00 | 0.00 | 0.00 | 93 | 1015.9 |
| 20260507122512 | 54 | 0 | 0.0 | 1.0 | 0.00 | 0.00 | 0.00 | 93 | 1015.9 |
| 20260507122016 | 54 | 0 | 0.0 | 1.0 | 0.00 | 0.00 | 0.00 | 93 | 1016.0 |
| 20260507121531 | 54 | 0 | 0.0 | 0.0 | 0.00 | 0.00 | 0.00 | 93 | 1016.0 |
| 20260507121010 | 54 | 0 | 0.0 | 0.0 | 0.00 | 0.00 | 0.00 | 93 | 1016.1 |
| 20260507120509 | 54 | 0 | 0.0 | 0.0 | 0.00 | 0.00 | 0.00 | 93 | 1016.0 |
| 20260507120036 | 54 | 0 | 0.0 | 2.0 | 0.00 | 0.00 | 0.00 | 93 | 1016.0 |
| 20260507115513 | 54 | 0 | 0.0 | 2.0 | 0.00 | 0.00 | 0.00 | 93 | 1016.1 |
| 20260507115014 | 54 | 230 | 0.0 | 1.0 | 0.00 | 0.00 | 0.00 | 93 | 1016.0 |
| 20260507114533 | 54 | 0 | 0.0 | 0.0 | 0.00 | 0.00 | 0.00 | 93 | 1016.0 |
| 20260507114014 | 54 | 0 | 0.0 | 0.0 | 0.00 | 0.00 | 0.00 | 93 | 1016.1 |
| 20260507113514 | 54 | 0 | 0.0 | 0.0 | 0.00 | 0.00 | 0.00 | 93 | 1016.0 |
| 20260507113029 | 54 | 0 | 0.0 | 0.0 | 0.00 | 0.00 | 0.00 | 93 | 1016.0 |
| 20260507112510 | 54 | 0 | 0.0 | 0.0 | 0.00 | 0.00 | 0.00 | 93 | 1016.1 |
| 20260507112013 | 55 | 0 | 0.0 | 1.0 | 0.00 | 0.00 | 0.00 | 93 | 1016.1 |
| 20260507111529 | 55 | 0 | 0.0 | 1.0 | 0.00 | 0.00 | 0.00 | 93 | 1016.1 |
| 20260507111013 | 55 | 0 | 0.0 | 1.0 | 0.00 | 0.00 | 0.00 | 93 | 1016.1 |
| 20260507110513 | 55 | 0 | 0.0 | 0.0 | 0.00 | 0.00 | 0.00 | 93 | 1016.1 |
| 20260507110030 | 55 | 0 | 0.0 | 0.0 | 0.00 | 0.00 | 0.00 | 93 | 1016.2 |
| 20260507105510 | 55 | 0 | 0.0 | 0.0 | 0.00 | 0.00 | 0.00 | 93 | 1016.2 |
| 20260507105010 | 55 | 0 | 0.0 | 0.0 | 0.00 | 0.00 | 0.00 | 92 | 1016.3 |
| 20260507104530 | 55 | 0 | 0.0 | 0.0 | 0.00 | 0.00 | 0.00 | 92 | 1016.4 |
| 20260507104015 | 55 | 0 | 0.0 | 0.0 | 0.00 | 0.00 | 0.00 | 92 | 1016.3 |
| 20260507103513 | 55 | 0 | 0.0 | 0.0 | 0.00 | 0.00 | 0.00 | 92 | 1016.4 |
| 20260507103030 | 56 | 0 | 0.0 | 0.0 | 0.00 | 0.00 | 0.00 | 92 | 1016.4 |
| 20260507102509 | 56 | 0 | 0.0 | 0.0 | 0.00 | 0.00 | 0.00 | 92 | 1016.4 |
| 20260507102013 | 56 | 0 | 0.0 | 1.0 | 0.00 | 0.00 | 0.00 | 92 | 1016.4 |
| 20260507101539 | 56 | 0 | 0.0 | 1.0 | 0.00 | 0.00 | 0.00 | 92 | 1016.4 |
| 20260507101018 | 56 | 0 | 0.0 | 1.0 | 0.00 | 0.00 | 0.00 | 92 | 1016.4 |
| 20260507100514 | 56 | 0 | 0.0 | 0.0 | 0.00 | 0.00 | 0.00 | 92 | 1016.5 |
| 20260507100044 | 56 | 0 | 0.0 | 0.0 | 0.00 | 0.00 | 0.00 | 92 | 1016.4 |
| 20260507095513 | 56 | 0 | 0.0 | 0.0 | 0.00 | 0.00 | 0.00 | 92 | 1016.4 |
| 20260507095011 | 56 | 0 | 0.0 | 0.0 | 0.00 | 0.00 | 0.00 | 92 | 1016.4 |
| 20260507094532 | 57 | 0 | 0.0 | 0.0 | 0.00 | 0.00 | 0.00 | 91 | 1016.4 |
| 20260507094013 | 57 | 0 | 0.0 | 1.0 | 0.00 | 0.00 | 0.00 | 91 | 1016.5 |
| 20260507093512 | 57 | 0 | 0.0 | 1.0 | 0.00 | 0.00 | 0.00 | 91 | 1016.6 |
| 20260507093032 | 57 | 0 | 0.0 | 1.0 | 0.00 | 0.00 | 0.00 | 91 | 1016.7 |
| 20260507092515 | 57 | 0 | 0.0 | 0.0 | 0.00 | 0.00 | 0.00 | 92 | 1016.7 |
| 20260507092012 | 57 | 0 | 0.0 | 0.0 | 0.00 | 0.00 | 0.00 | 91 | 1016.7 |
| 20260507091532 | 57 | 0 | 0.0 | 0.0 | 0.00 | 0.00 | 0.00 | 91 | 1016.8 |
| 20260507091015 | 57 | 0 | 0.0 | 0.0 | 0.00 | 0.00 | 0.00 | 91 | 1016.9 |
| 20260507090513 | 58 | 0 | 0.0 | 0.0 | 0.00 | 0.00 | 0.00 | 91 | 1016.9 |
| 20260507090033 | 58 | 0 | 0.0 | 0.0 | 0.00 | 0.00 | 0.00 | 91 | 1016.9 |
| 20260507085513 | 58 | 0 | 0.0 | 0.0 | 0.00 | 0.00 | 0.00 | 91 | 1017.0 |
| 20260507085010 | 58 | 0 | 0.0 | 0.0 | 0.00 | 0.00 | 0.00 | 91 | 1017.0 |
| 20260507084530 | 58 | 0 | 0.0 | 0.0 | 0.00 | 0.00 | 0.00 | 90 | 1017.1 |
| 20260507084012 | 58 | 0 | 0.0 | 0.0 | 0.00 | 0.00 | 0.00 | 91 | 1017.0 |
| 20260507083512 | 58 | 0 | 0.0 | 0.0 | 0.00 | 0.00 | 0.00 | 90 | 1017.1 |
| 20260507083035 | 59 | 0 | 0.0 | 1.0 | 0.00 | 0.00 | 0.00 | 90 | 1017.2 |
| 20260507082511 | 59 | 0 | 0.0 | 1.0 | 0.00 | 0.00 | 0.00 | 90 | 1017.1 |
| 20260507082010 | 59 | 0 | 0.0 | 1.0 | 0.00 | 0.00 | 0.00 | 90 | 1017.2 |
| 20260507081530 | 59 | 0 | 0.0 | 4.0 | 0.00 | 0.00 | 0.00 | 90 | 1017.2 |
| 20260507081013 | 59 | 0 | 0.0 | 4.0 | 0.00 | 0.00 | 0.00 | 90 | 1017.2 |
| 20260507080513 | 59 | 0 | 0.0 | 3.0 | 0.00 | 0.00 | 0.00 | 90 | 1017.2 |
| 20260507080031 | 59 | 258 | 0.0 | 6.0 | 0.00 | 0.00 | 0.00 | 90 | 1017.3 |
| 20260507075514 | 59 | 246 | 1.0 | 6.0 | 0.00 | 0.00 | 0.00 | 89 | 1017.3 |
| 20260507075012 | 59 | 268 | 2.0 | 7.0 | 0.00 | 0.00 | 0.00 | 89 | 1017.3 |
| 20260507074530 | 59 | 263 | 1.0 | 8.0 | 0.00 | 0.00 | 0.00 | 89 | 1017.3 |
| 20260507074012 | 59 | 248 | 3.0 | 8.0 | 0.00 | 0.00 | 0.00 | 89 | 1017.4 |
| 20260507073512 | 59 | 261 | 3.0 | 8.0 | 0.00 | 0.00 | 0.00 | 89 | 1017.4 |
| 20260507073032 | 59 | 213 | 2.0 | 7.0 | 0.00 | 0.00 | 0.00 | 89 | 1017.4 |
| 20260507072515 | 59 | 257 | 2.0 | 8.0 | 0.00 | 0.00 | 0.00 | 89 | 1017.5 |
| 20260507072013 | 59 | 246 | 2.0 | 8.0 | 0.00 | 0.00 | 0.00 | 89 | 1017.4 |
| 20260507071532 | 59 | 246 | 3.0 | 9.0 | 0.00 | 0.00 | 0.00 | 89 | 1017.4 |
| 20260507071013 | 59 | 265 | 3.0 | 9.0 | 0.00 | 0.00 | 0.00 | 90 | 1017.3 |
| 20260507070513 | 59 | 209 | 2.0 | 7.0 | 0.00 | 0.00 | 0.00 | 91 | 1017.4 |
| 20260507070037 | 59 | 226 | 2.0 | 7.0 | 0.00 | 0.00 | 0.00 | 91 | 1017.5 |
| 20260507065512 | 59 | 0 | 1.0 | 3.0 | 0.00 | 0.00 | 0.00 | 91 | 1017.5 |
| 20260507065013 | 59 | 267 | 0.0 | 4.0 | 0.00 | 0.00 | 0.00 | 91 | 1017.4 |
| 20260507064538 | 59 | 265 | 1.0 | 4.0 | 0.00 | 0.00 | 0.00 | 91 | 1017.4 |
| 20260507064013 | 59 | 0 | 1.0 | 4.0 | 0.00 | 0.00 | 0.00 | 91 | 1017.5 |
| 20260507063512 | 59 | 0 | 1.0 | 4.0 | 0.00 | 0.00 | 0.00 | 91 | 1017.6 |
| 20260507063032 | 59 | 267 | 0.0 | 6.0 | 0.00 | 0.00 | 0.00 | 91 | 1017.6 |
| 20260507062512 | 59 | 266 | 1.0 | 8.0 | 0.00 | 0.00 | 0.00 | 91 | 1017.6 |
| 20260507062013 | 59 | 221 | 2.0 | 8.0 | 0.00 | 0.00 | 0.00 | 91 | 1017.6 |
| 20260507061530 | 59 | 269 | 3.0 | 8.0 | 0.00 | 0.00 | 0.00 | 91 | 1017.6 |
| 20260507061013 | 59 | 267 | 2.0 | 8.0 | 0.00 | 0.00 | 0.00 | 91 | 1017.5 |
| 20260507060520 | 59 | 278 | 1.0 | 8.0 | 0.00 | 0.00 | 0.00 | 91 | 1017.5 |
| 20260507060030 | 59 | 278 | 3.0 | 8.0 | 0.00 | 0.00 | 0.00 | 91 | 1017.6 |
| 20260507055513 | 59 | 279 | 2.0 | 8.0 | 0.00 | 0.00 | 0.00 | 91 | 1017.6 |
| 20260507055014 | 59 | 258 | 2.0 | 7.0 | 0.00 | 0.00 | 0.00 | 91 | 1017.5 |
| 20260507054538 | 59 | 268 | 2.0 | 12.0 | 0.00 | 0.00 | 0.00 | 91 | 1017.5 |
| 20260507054012 | 59 | 266 | 1.0 | 12.0 | 0.00 | 0.00 | 0.00 | 90 | 1017.5 |
| 20260507053513 | 59 | 265 | 1.0 | 7.0 | 0.00 | 0.00 | 0.00 | 90 | 1017.6 |
| 20260507053030 | 60 | 269 | 2.0 | 7.0 | 0.00 | 0.00 | 0.00 | 90 | 1017.6 |
| 20260507052512 | 60 | 270 | 2.0 | 8.0 | 0.00 | 0.00 | 0.00 | 90 | 1017.6 |
| 20260507052012 | 60 | 262 | 2.0 | 9.0 | 0.00 | 0.00 | 0.00 | 90 | 1017.6 |
| 20260507051532 | 60 | 271 | 4.0 | 9.0 | 0.00 | 0.00 | 0.00 | 89 | 1017.6 |
| 20260507051012 | 60 | 272 | 3.0 | 8.0 | 0.00 | 0.00 | 0.00 | 89 | 1017.6 |
| 20260507050514 | 60 | 263 | 3.0 | 8.0 | 0.00 | 0.00 | 0.00 | 89 | 1017.6 |
| 20260507050036 | 60 | 252 | 3.0 | 7.0 | 0.00 | 0.00 | 0.00 | 88 | 1017.5 |
| 20260507045514 | 60 | 250 | 1.0 | 8.0 | 0.00 | 0.00 | 0.00 | 88 | 1017.5 |
| 20260507045013 | 60 | 251 | 2.0 | 9.0 | 0.00 | 0.00 | 0.00 | 88 | 1017.5 |
| 20260507044536 | 60 | 262 | 3.0 | 9.0 | 0.00 | 0.00 | 0.00 | 88 | 1017.5 |
| 20260507044013 | 60 | 267 | 1.0 | 4.0 | 0.00 | 0.00 | 0.00 | 89 | 1017.4 |
| 20260507043511 | 60 | 232 | 1.0 | 4.0 | 0.00 | 0.00 | 0.00 | 89 | 1017.5 |
| 20260507043030 | 60 | 0 | 1.0 | 5.0 | 0.00 | 0.00 | 0.00 | 89 | 1017.3 |
| 20260507042514 | 60 | 271 | 0.0 | 5.0 | 0.00 | 0.00 | 0.00 | 89 | 1017.4 |
| 20260507042012 | 60 | 263 | 1.0 | 5.0 | 0.00 | 0.00 | 0.00 | 88 | 1017.3 |
| 20260507041540 | 61 | 211 | 1.0 | 9.0 | 0.00 | 0.00 | 0.00 | 89 | 1017.4 |
| 20260507041013 | 61 | 0 | 1.0 | 9.0 | 0.00 | 0.00 | 0.00 | 89 | 1017.3 |
| 20260507040513 | 61 | 264 | 3.0 | 9.0 | 0.00 | 0.00 | 0.00 | 89 | 1017.1 |
| 20260507040029 | 61 | 0 | 2.0 | 8.0 | 0.00 | 0.00 | 0.00 | 88 | 1017.2 |
| 20260507035513 | 61 | 265 | 1.0 | 8.0 | 0.00 | 0.00 | 0.00 | 88 | 1017.1 |
| 20260507035012 | 61 | 253 | 2.0 | 8.0 | 0.00 | 0.00 | 0.00 | 88 | 1017.0 |
| 20260507034528 | 61 | 209 | 3.0 | 10.0 | 0.00 | 0.00 | 0.00 | 87 | 1017.0 |
| 20260507034012 | 61 | 266 | 2.0 | 10.0 | 0.00 | 0.00 | 0.00 | 87 | 1016.9 |
| 20260507033513 | 61 | 266 | 4.0 | 10.0 | 0.00 | 0.00 | 0.00 | 87 | 1016.8 |
| 20260507033034 | 61 | 277 | 3.0 | 8.0 | 0.00 | 0.00 | 0.00 | 87 | 1016.7 |
| 20260507032513 | 61 | 258 | 2.0 | 10.0 | 0.00 | 0.00 | 0.00 | 87 | 1016.7 |
| 20260507032013 | 61 | 245 | 3.0 | 10.0 | 0.00 | 0.00 | 0.00 | 87 | 1016.7 |
| 20260507031532 | 61 | 257 | 3.0 | 12.0 | 0.00 | 0.00 | 0.00 | 87 | 1016.6 |
| 20260507031015 | 61 | 260 | 6.0 | 12.0 | 0.00 | 0.00 | 0.00 | 87 | 1016.6 |
| 20260507030514 | 61 | 275 | 3.0 | 11.0 | 0.00 | 0.00 | 0.00 | 88 | 1016.6 |
| 20260507030032 | 61 | 246 | 4.0 | 11.0 | 0.00 | 0.00 | 0.00 | 88 | 1016.6 |
| 20260507025512 | 61 | 249 | 4.0 | 12.0 | 0.00 | 0.00 | 0.00 | 87 | 1016.5 |
| 20260507025012 | 61 | 265 | 4.0 | 12.0 | 0.00 | 0.00 | 0.00 | 86 | 1016.5 |
| 20260507024532 | 61 | 257 | 4.0 | 11.0 | 0.00 | 0.00 | 0.00 | 86 | 1016.4 |
| 20260507024014 | 62 | 269 | 5.0 | 11.0 | 0.00 | 0.00 | 0.00 | 85 | 1016.4 |
| 20260507023520 | 62 | 230 | 4.0 | 10.0 | 0.00 | 0.00 | 0.00 | 84 | 1016.3 |
| 20260507023029 | 62 | 260 | 2.0 | 9.0 | 0.00 | 0.00 | 0.00 | 84 | 1016.3 |
| 20260507022516 | 63 | 244 | 2.0 | 9.0 | 0.00 | 0.00 | 0.00 | 83 | 1016.3 |
| 20260507022013 | 63 | 238 | 4.0 | 9.0 | 0.00 | 0.00 | 0.00 | 82 | 1016.3 |
| 20260507021530 | 63 | 286 | 2.0 | 12.0 | 0.00 | 0.00 | 0.00 | 83 | 1016.2 |
| 20260507021015 | 63 | 238 | 2.0 | 12.0 | 0.00 | 0.00 | 0.00 | 83 | 1016.2 |
| 20260507020513 | 63 | 273 | 3.0 | 11.0 | 0.00 | 0.00 | 0.00 | 83 | 1016.2 |
| 20260507020030 | 63 | 240 | 3.0 | 12.0 | 0.00 | 0.00 | 0.00 | 83 | 1016.2 |
| 20260507015512 | 63 | 200 | 5.0 | 12.0 | 0.00 | 0.00 | 0.00 | 83 | 1016.2 |
| 20260507015012 | 63 | 268 | 5.0 | 13.0 | 0.00 | 0.00 | 0.00 | 83 | 1016.2 |
| 20260507014540 | 64 | 232 | 5.0 | 13.0 | 0.00 | 0.00 | 0.00 | 82 | 1016.2 |
| 20260507014014 | 64 | 269 | 4.0 | 13.0 | 0.00 | 0.00 | 0.00 | 81 | 1016.1 |
| 20260507013518 | 64 | 274 | 5.0 | 14.0 | 0.00 | 0.00 | 0.00 | 81 | 1016.1 |
| 20260507013029 | 64 | 233 | 6.0 | 14.0 | 0.00 | 0.00 | 0.00 | 81 | 1016.1 |
| 20260507012512 | 64 | 262 | 6.0 | 14.0 | 0.00 | 0.00 | 0.00 | 81 | 1016.1 |
| 20260507012012 | 64 | 253 | 5.0 | 12.0 | 0.00 | 0.00 | 0.00 | 81 | 1016.1 |
| 20260507011532 | 65 | 282 | 5.0 | 12.0 | 0.00 | 0.00 | 0.00 | 81 | 1016.0 |
| 20260507011012 | 65 | 248 | 5.0 | 13.0 | 0.00 | 0.00 | 0.00 | 80 | 1016.1 |
| 20260507010515 | 64 | 250 | 4.0 | 13.0 | 0.00 | 0.00 | 0.00 | 81 | 1016.0 |
| 20260507010029 | 64 | 263 | 6.0 | 13.0 | 0.00 | 0.00 | 0.00 | 80 | 1016.0 |
| 20260507005513 | 65 | 217 | 5.0 | 17.0 | 0.00 | 0.00 | 0.00 | 81 | 1016.1 |
| 20260507005013 | 65 | 262 | 6.0 | 17.0 | 0.00 | 0.00 | 0.00 | 81 | 1016.0 |
| 20260507004536 | 65 | 254 | 6.0 | 14.0 | 0.00 | 0.00 | 0.00 | 81 | 1015.9 |
| 20260507004013 | 64 | 269 | 6.0 | 14.0 | 0.00 | 0.00 | 0.00 | 81 | 1016.0 |
| 20260507003514 | 64 | 268 | 7.0 | 14.0 | 0.00 | 0.00 | 0.00 | 81 | 1016.2 |
| 20260507003033 | 65 | 215 | 5.0 | 14.0 | 0.00 | 0.00 | 0.00 | 80 | 1016.1 |
| 20260507002513 | 65 | 234 | 6.0 | 14.0 | 0.00 | 0.00 | 0.00 | 81 | 1016.0 |
| 20260507002016 | 65 | 267 | 5.0 | 12.0 | 0.00 | 0.00 | 0.00 | 81 | 1016.1 |
| 20260507001531 | 65 | 265 | 5.0 | 20.0 | 0.00 | 0.00 | 0.00 | 80 | 1016.1 |
| 20260507001012 | 65 | 236 | 7.0 | 20.0 | 0.00 | 0.00 | 0.00 | 81 | 1016.0 |
| 20260507000512 | 65 | 263 | 5.0 | 15.0 | 0.00 | 0.00 | 0.00 | 80 | 1016.0 |
| 20260507000031 | 65 | 271 | 7.0 | 15.0 | 0.00 | 0.00 | 0.00 | 79 | 1016.1 |
| 20260506235511 | 66 | 237 | 5.0 | 13.0 | 0.00 | 0.00 | 0.00 | 79 | 1016.1 |
| 20260506235012 | 66 | 265 | 7.0 | 13.0 | 0.00 | 0.00 | 0.00 | 78 | 1016.1 |
| 20260506234537 | 67 | 231 | 5.0 | 14.0 | 0.00 | 0.00 | 0.00 | 78 | 1016.1 |
| 20260506234013 | 67 | 219 | 7.0 | 14.0 | 0.00 | 0.00 | 0.00 | 77 | 1016.1 |
| 20260506233513 | 67 | 258 | 4.0 | 15.0 | 0.00 | 0.00 | 0.00 | 77 | 1016.2 |
| 20260506233030 | 66 | 263 | 8.0 | 15.0 | 0.00 | 0.00 | 0.00 | 76 | 1016.1 |
| 20260506232512 | 67 | 211 | 6.0 | 13.0 | 0.00 | 0.00 | 0.00 | 75 | 1016.1 |
| 20260506232013 | 67 | 301 | 6.0 | 15.0 | 0.00 | 0.00 | 0.00 | 75 | 1016.2 |
| 20260506231544 | 67 | 269 | 6.0 | 15.0 | 0.00 | 0.00 | 0.00 | 75 | 1016.2 |
| 20260506231013 | 67 | 263 | 4.0 | 13.0 | 0.00 | 0.00 | 0.00 | 74 | 1016.2 |
| 20260506230512 | 67 | 218 | 5.0 | 14.0 | 0.00 | 0.00 | 0.00 | 75 | 1016.3 |
| 20260506230037 | 67 | 302 | 8.0 | 15.0 | 0.00 | 0.00 | 0.00 | 74 | 1016.3 |
| 20260506225512 | 67 | 244 | 5.0 | 16.0 | 0.00 | 0.00 | 0.00 | 75 | 1016.3 |
| 20260506225012 | 66 | 290 | 6.0 | 16.0 | 0.00 | 0.00 | 0.00 | 75 | 1016.4 |
| 20260506224530 | 67 | 230 | 7.0 | 16.0 | 0.00 | 0.00 | 0.00 | 75 | 1016.4 |
| 20260506224012 | 67 | 205 | 6.0 | 14.0 | 0.00 | 0.00 | 0.00 | 74 | 1016.5 |
| 20260506223513 | 67 | 221 | 5.0 | 14.0 | 0.00 | 0.00 | 0.00 | 74 | 1016.6 |
| 20260506223044 | 67 | 235 | 7.0 | 14.0 | 0.00 | 0.00 | 0.00 | 74 | 1016.6 |
| 20260506222514 | 67 | 225 | 6.0 | 14.0 | 0.00 | 0.00 | 0.00 | 73 | 1016.7 |
| 20260506222010 | 67 | 267 | 6.0 | 16.0 | 0.00 | 0.00 | 0.00 | 74 | 1016.7 |
| 20260506221528 | 67 | 264 | 6.0 | 16.0 | 0.00 | 0.00 | 0.00 | 74 | 1016.7 |
| 20260506221014 | 67 | 277 | 5.0 | 14.0 | 0.00 | 0.00 | 0.00 | 75 | 1016.8 |
| 20260506220514 | 67 | 244 | 6.0 | 14.0 | 0.00 | 0.00 | 0.00 | 74 | 1016.9 |
| 20260506220031 | 67 | 279 | 5.0 | 16.0 | 0.00 | 0.00 | 0.00 | 75 | 1017.0 |
| 20260506215516 | 67 | 232 | 7.0 | 16.0 | 0.00 | 0.00 | 0.00 | 75 | 1017.0 |
| 20260506215011 | 67 | 273 | 6.0 | 15.0 | 0.00 | 0.00 | 0.00 | 74 | 1017.1 |
| 20260506214532 | 68 | 207 | 6.0 | 14.0 | 0.00 | 0.00 | 0.00 | 74 | 1017.2 |
| 20260506214014 | 67 | 304 | 5.0 | 14.0 | 0.00 | 0.00 | 0.00 | 76 | 1017.2 |
| 20260506213516 | 67 | 259 | 7.0 | 15.0 | 0.00 | 0.00 | 0.00 | 74 | 1017.3 |
| 20260506213031 | 67 | 264 | 7.0 | 15.0 | 0.00 | 0.00 | 0.00 | 75 | 1017.3 |
| 20260506212512 | 67 | 239 | 8.0 | 15.0 | 0.00 | 0.00 | 0.00 | 74 | 1017.3 |
| 20260506212013 | 67 | 246 | 6.0 | 13.0 | 0.00 | 0.00 | 0.00 | 74 | 1017.4 |
| 20260506211539 | 67 | 257 | 5.0 | 13.0 | 0.00 | 0.00 | 0.00 | 75 | 1017.5 |
| 20260506211010 | 67 | 282 | 7.0 | 14.0 | 0.00 | 0.00 | 0.00 | 74 | 1017.5 |
| 20260506210512 | 67 | 239 | 7.0 | 14.0 | 0.00 | 0.00 | 0.00 | 76 | 1017.5 |
| 20260506210035 | 67 | 254 | 6.0 | 14.0 | 0.00 | 0.00 | 0.00 | 74 | 1017.5 |
| 20260506205511 | 68 | 249 | 5.0 | 14.0 | 0.00 | 0.00 | 0.00 | 74 | 1017.6 |
| 20260506205013 | 67 | 234 | 6.0 | 15.0 | 0.00 | 0.00 | 0.00 | 73 | 1017.6 |
| 20260506204531 | 67 | 290 | 6.0 | 15.0 | 0.00 | 0.00 | 0.00 | 72 | 1017.6 |
| 20260506204013 | 67 | 300 | 6.0 | 15.0 | 0.00 | 0.00 | 0.00 | 72 | 1017.6 |
| 20260506203511 | 67 | 269 | 7.0 | 12.0 | 0.00 | 0.00 | 0.00 | 70 | 1017.7 |
| 20260506203032 | 68 | 211 | 5.0 | 15.0 | 0.00 | 0.00 | 0.00 | 71 | 1017.7 |
| 20260506202513 | 68 | 292 | 6.0 | 15.0 | 0.00 | 0.00 | 0.00 | 70 | 1017.7 |
| 20260506202014 | 68 | 277 | 8.0 | 13.0 | 0.00 | 0.00 | 0.00 | 69 | 1017.6 |